Home   Weather   Leonberg   Past weeks

Flag for Germany Past Weather in Leonberg, Baden-Württemberg, Germany — Yesterday and Last 2 Weeks

50 °F

Passing clouds.

Feels Like: 50 °F
Forecast: 39 / 55 °F
Wind: 2 mph from North

Location: Stuttgart-Echterdingen

Current Time: Oct 26, 2016 at 9:28:25 PM

Latest Report: Oct 26, 2016 at 8:50 PM

Visibility: N/A

Pressure: 30.39 "Hg

Humidity: 82%

Dew Point: 45 °F

Location of LeonbergLocation

Past Weather in Leonberg — Graph


Leonberg Temperature Yesterday

Maximum temperature yesterday: 57 °F (at 12:20 AM)
Minimum temperature yesterday: 52 °F (at 10:50 PM)
Average temperature yesterday: 56 °F

High & Low Weather Summary for the Past Weeks

High68 °F (Oct 16, 3:50 PM)100% (Oct 14, 3:20 AM)30.39 "Hg (Oct 14, 3:20 AM)
Low32 °F (Oct 23, 6:20 AM)47% (Oct 12, 3:50 PM)29.65 "Hg (Oct 14, 5:50 PM)
Average49 °F85%30.02 "Hg
* Reported Oct 11 8:20 PM — Oct 26 8:20 PM, Leonberg, Weather by CustomWeather, © 2016

Note: Actual official high and low records may vary slightly from our data, if they occured in-between our weather recording intervals... More about our weather records


Leonberg Weather History for the Previous 24 Hours

Scroll right to see more
Time TempWeatherWind HumidityBarometerVisibility
8:20 PM
Wed, Oct 26
52 °FPassing clouds.6 mph82%30.39 "HgN/A
7:50 PM52 °FPassing clouds.5 mph82%30.39 "HgN/A
7:20 PM52 °FPassing clouds.3 mph82%30.36 "HgN/A
6:50 PM54 °FPassing clouds.2 mph77%30.36 "HgN/A
6:20 PM54 °FPassing clouds.5 mph77%30.36 "HgN/A
5:50 PM54 °FPartly sunny.6 mph77%30.36 "HgN/A
5:20 PM54 °FPartly sunny.6 mph77%30.33 "HgN/A
4:50 PM54 °FPartly sunny.5 mph82%30.33 "HgN/A
4:20 PM54 °FPartly sunny.6 mph82%30.33 "HgN/A
3:50 PM55 °FPartly sunny.7 mph77%30.33 "HgN/A
3:20 PM55 °FPartly sunny.6 mph77%30.33 "HgN/A
2:50 PM55 °FPartly sunny.6 mph77%30.33 "HgN/A
2:20 PM55 °FBroken clouds.2 mph72%30.33 "HgN/A
1:50 PM55 °FBroken clouds.2 mph67%30.33 "HgN/A
1:20 PM57 °FBroken clouds.3 mph67%30.33 "HgN/A
12:50 PM55 °FBroken clouds.3 mph72%30.33 "HgN/A
12:20 PM55 °FPartly sunny.3 mph77%30.33 "HgN/A
11:50 AM54 °FPartly sunny.3 mph82%30.33 "HgN/A
11:20 AM54 °FBroken clouds.2 mph82%30.33 "HgN/A
10:50 AM52 °FBroken clouds.3 mph94%30.33 "HgN/A
10:20 AM52 °FBroken clouds.2 mph94%30.33 "Hg5 mi
9:50 AM52 °FBroken clouds.No wind94%30.33 "Hg4 mi
9:20 AM52 °FBroken clouds.3 mph94%30.33 "Hg4 mi
8:50 AM50 °FFog.2 mph100%30.30 "Hg3 mi
8:20 AM50 °FFog.3 mph100%30.30 "Hg3 mi
7:50 AM50 °FFog.5 mph100%30.30 "Hg2 mi
7:20 AM50 °FPassing clouds.5 mph100%30.30 "Hg4 mi
6:50 AM50 °FPassing clouds.2 mph94%30.30 "Hg4 mi
6:20 AM50 °FPassing clouds.5 mph100%30.30 "Hg5 mi
5:50 AM52 °FPassing clouds.5 mph94%30.30 "Hg5 mi
5:20 AM52 °FPassing clouds.2 mph94%30.27 "Hg5 mi
4:50 AM52 °FPartly cloudy.3 mph94%30.27 "Hg5 mi
4:20 AM52 °FPassing clouds.3 mph94%30.30 "HgN/A
3:50 AM52 °FPassing clouds.3 mph94%30.30 "HgN/A
3:20 AM52 °FPassing clouds.1 mph94%30.30 "HgN/A
2:50 AM52 °FPassing clouds.1 mph94%30.30 "HgN/A
2:20 AM52 °FPassing clouds.3 mph94%30.30 "HgN/A
1:50 AM52 °FPassing clouds.2 mph94%30.30 "HgN/A
1:20 AM52 °FPartly cloudy.No wind94%30.30 "HgN/A
12:50 AM52 °FPassing clouds.No wind94%30.30 "HgN/A
12:20 AM52 °FPassing clouds.1 mph94%30.27 "HgN/A
11:50 PM
Tue, Oct 25
52 °FPassing clouds.3 mph94%30.27 "HgN/A
11:20 PM52 °FPassing clouds.1 mph94%30.27 "HgN/A
10:50 PM52 °FPassing clouds.1 mph94%30.27 "HgN/A
10:20 PM54 °FPassing clouds.1 mph82%30.27 "HgN/A
9:50 PM54 °FPassing clouds.2 mph82%30.27 "HgN/A
9:20 PM54 °FPassing clouds.5 mph82%30.27 "HgN/A
Weather by CustomWeather, © 2016

See weather overviewHow to use our weather pages